Retour au catalogue

STARLINK-11089

ActifCommunicationsVLEO
NORAD 59426·PAYLOAD·🇺🇸 United States

Lancé Apr 7, 2024 depuis Vandenberg Space Force Base

Loading…

Prochains Passages (prochaines 24 heures)

TLE

FraisSource: CelesTrak SupGP

Époque: Sep 15, 2026, 02:37 UTC

1 59426C 24065F   26258.10951389 -.00054573  00000+0 -44922-3 0  2589
2 59426  53.1575 240.3194 0001176  89.8337 176.2172 15.69753640    13

Suivez STARLINK-11089 en temps réel avec AllMySat

Download on the App Store